Date_and_time,latitude,longitude,wind_speed,RelWindDirFrom,WindDirFrom,air_pressure,air_temperature,relative_humidity,Temp,platform_speed_wrt_ground,air_pressure_at_mean_sea_level,platform_orientation
2019-10-08 00:00,50.6304266666667,-96.9807666666667,12.1,14.9,153,980.72,11.8,76,9.69,0.0,1006.97,270.0
2019-10-08 00:10,50.6304283333333,-96.9807666666667,12.3,14.4,154,980.64,11.7,78,9.70,0.0,1006.90,270.0
2019-10-08 00:20,50.6304283333333,-96.980765,11.7,13.5,157,980.65,11.5,80,9.68,0.0,1006.93,270.0
2019-10-08 00:30,50.6304283333333,-96.980765,10.1,11.3,157,980.58,11.4,79,9.68,0.0,1006.87,270.0
2019-10-08 00:40,50.6304283333333,-96.980765,9.4,10.7,155,980.53,11.3,78,9.68,0.0,1006.88,270.0
2019-10-08 00:50,50.63042,-96.9807583333333,9.7,11.2,154,980.43,11.2,79,9.67,0.0,1006.89,270.0
2019-10-08 01:00,50.6304233333333,-96.9807533333333,9.1,10.5,152,980.38,11.2,77,9.66,0.0,1006.86,90.0
2019-10-08 01:10,50.6304216666667,-96.9807583333333,9.6,11.9,150,980.26,11.2,76,9.63,0.0,1006.73,90.0
2019-10-08 01:20,50.6304233333333,-96.98076,10.7,13.4,151,980.08,11.2,75,9.62,0.0,1006.55,90.0
2019-10-08 01:30,50.63043,-96.980755,12.2,15.8,152,979.89,11.3,74,9.61,0.0,1006.35,90.0
2019-10-08 01:40,50.630435,-96.9807683333333,11.8,14.4,153,979.77,11.1,77,9.60,0.0,1006.27,90.0
2019-10-08 01:50,50.6304333333333,-96.9807683333333,12.0,14.0,157,979.74,11.0,76,9.59,0.0,1006.26,90.0
2019-10-08 02:00,50.6304333333333,-96.98077,11.6,13.9,159,979.72,11.3,71,9.59,0.0,1006.22,38.0
2019-10-08 02:10,50.6304333333333,-96.9807683333333,12.8,15.0,161,979.67,12.0,65,9.59,0.0,1006.15,38.0
2019-10-08 02:20,50.6304316666667,-96.9807683333333,11.5,13.9,157,979.63,12.1,65,9.56,0.0,1006.11,38.0
2019-10-08 02:30,50.6304316666667,-96.9807683333333,10.9,13.0,150,979.47,11.3,73,9.55,0.0,1005.98,38.0
2019-10-08 02:40,50.6304316666667,-96.9807683333333,13.0,17.9,160,979.29,11.9,64,9.56,0.0,1005.78,38.0
2019-10-08 02:50,50.63043,-96.9807683333333,15.0,17.9,162,979.13,13.2,55,9.56,0.0,1005.55,38.0
2019-10-08 03:00,50.63043,-96.9807683333333,14.8,18.0,160,979.14,13.1,56,9.56,0.0,1005.56,0.0
2019-10-08 03:10,50.63043,-96.9807666666667,14.0,16.3,159,979.13,12.8,58,9.55,0.0,1005.57,0.0
2019-10-08 03:20,50.63043,-96.9807666666667,14.1,17.3,158,979.01,12.5,59,9.55,0.0,1005.46,0.0
2019-10-08 03:30,50.63043,-96.9807666666667,15.3,17.6,158,978.87,12.3,60,9.59,0.0,1005.33,0.0
2019-10-08 03:40,50.63043,-96.9807666666667,13.5,16.3,158,978.83,12.0,62,9.60,0.0,1005.30,0.0
2019-10-08 03:50,50.63043,-96.9807666666667,13.5,15.2,156,978.60,11.9,62,9.60,0.0,1005.07,0.0
2019-10-08 04:00,50.6304216666667,-96.98078,14.2,16.9,157,978.39,11.9,62,9.60,0.0,1004.82,255.8
2019-10-08 04:10,50.6304333333333,-96.980765,15.8,18.1,159,978.13,12.0,60,9.60,0.0,1004.54,255.8
2019-10-08 04:20,50.6304366666667,-96.98077,15.9,19.2,160,977.99,12.1,59,9.59,0.0,1004.43,255.8
2019-10-08 04:30,50.6304366666667,-96.98077,16.5,20.2,160,977.77,12.2,59,9.59,0.0,1004.17,255.8
2019-10-08 04:40,50.630435,-96.9807683333333,15.4,18.8,162,977.74,12.2,58,9.58,0.0,1004.08,255.8
2019-10-08 04:50,50.630435,-96.9807683333333,14.9,17.8,163,977.66,12.2,58,9.56,0.0,1004.00,255.8
2019-10-08 05:00,50.6304366666667,-96.9807683333333,16.1,20.5,162,977.46,12.3,57,9.55,0.0,1003.80,38.0
2019-10-08 05:10,50.6304366666667,-96.9807666666667,17.0,21.1,163,977.24,12.4,56,9.55,0.0,1003.59,38.0
2019-10-08 05:20,50.6304383333333,-96.980765,17.7,25.5,163,977.10,12.5,56,9.54,0.0,1003.44,38.0
2019-10-08 05:30,50.6304383333333,-96.9807666666667,17.2,21.6,165,976.98,12.4,56,9.55,0.0,1003.34,38.0
2019-10-08 05:40,50.6304366666667,-96.9807683333333,18.3,22.0,164,976.80,12.5,55,9.56,0.0,1003.16,38.0
2019-10-08 05:50,50.630435,-96.9807666666667,18.6,22.0,164,976.65,12.3,56,9.56,0.0,1003.02,38.0
2019-10-08 06:00,50.6304366666667,-96.9807666666667,18.4,22.5,165,976.54,12.2,56,9.56,0.0,1002.91,360.0
2019-10-08 06:10,50.6304366666667,-96.980765,18.8,24.0,163,976.40,12.1,56,9.56,0.0,1002.76,360.0
2019-10-08 06:20,50.630435,-96.9807633333333,18.9,24.3,162,976.25,12.1,57,9.56,0.0,1002.60,360.0
2019-10-08 06:30,50.630435,-96.9807633333333,18.6,22.1,162,976.15,11.9,57,9.55,0.0,1002.51,360.0
2019-10-08 06:40,50.6304333333333,-96.980785,18.6,22.0,162,976.04,11.7,58,9.54,0.0,1002.40,360.0
2019-10-08 06:50,50.63043,-96.9807633333333,18.4,22.2,163,975.97,11.6,59,9.53,0.0,1002.33,360.0
2019-10-08 07:00,50.6304283333333,-96.980765,18.0,22.0,163,975.86,11.5,59,9.53,0.0,1002.21,68.5
2019-10-08 07:10,50.6304266666667,-96.9807616666667,18.2,21.5,163,975.77,11.5,58,9.52,0.0,1002.11,68.5
2019-10-08 07:20,50.630425,-96.9807633333333,18.9,23.9,164,975.66,11.6,58,9.51,0.0,1002.00,68.5
2019-10-08 07:30,50.630435,-96.9807816666667,19.1,25.1,165,975.61,11.7,57,9.51,0.0,1001.95,68.5
2019-10-08 07:40,50.6304333333333,-96.9807766666667,19.5,24.4,165,975.45,11.8,56,9.51,0.0,1001.78,68.5
2019-10-08 07:50,50.63043,-96.9807716666667,19.1,24.1,165,975.27,11.9,57,9.50,0.0,1001.60,68.5
2019-10-08 08:00,50.63043,-96.98077,18.7,24.3,164,975.16,11.8,57,9.49,0.0,1001.50,360.0
2019-10-08 08:10,50.6304266666667,-96.9807716666667,18.5,24.7,166,974.98,11.8,57,9.48,0.0,1001.32,360.0
2019-10-08 08:20,50.6304316666667,-96.9807666666667,18.2,22.9,165,974.86,11.8,57,9.47,0.0,1001.20,360.0
2019-10-08 08:30,50.6304316666667,-96.9807633333333,18.2,23.2,165,974.75,11.8,57,9.46,0.0,1001.10,360.0
2019-10-08 08:40,50.63043,-96.9807533333333,19.2,23.3,164,974.54,11.9,56,9.47,0.0,1000.88,360.0
2019-10-08 08:50,50.6304233333333,-96.9807566666667,19.1,23.5,164,974.38,11.9,57,9.47,0.0,1000.72,360.0
2019-10-08 09:00,50.6304216666667,-96.9807566666667,19.7,27.0,164,974.20,11.9,57,9.47,0.0,1000.53,156.5
2019-10-08 09:10,50.630425,-96.98076,19.9,27.1,163,973.89,11.9,57,9.47,0.0,1000.22,156.5
2019-10-08 09:20,50.6304233333333,-96.9807583333333,20.1,24.8,164,973.73,11.9,58,9.46,0.0,1000.04,156.5
2019-10-08 09:30,50.630425,-96.98076,19.1,23.4,164,973.72,11.9,58,9.45,0.0,1000.03,156.5
2019-10-08 09:40,50.6304266666667,-96.9807566666667,18.9,23.7,164,973.61,11.9,58,9.45,0.0,999.91,156.5
2019-10-08 09:50,50.6304283333333,-96.980755,19.0,23.0,164,973.51,11.9,57,9.45,0.0,999.81,156.5
2019-10-08 10:00,50.63043,-96.9807566666667,18.3,22.9,164,973.35,11.9,57,9.45,0.0,999.65,90.0
2019-10-08 10:10,50.6304316666667,-96.980755,19.0,24.2,166,973.18,12.0,56,9.45,0.0,999.48,90.0
2019-10-08 10:20,50.6304316666667,-96.980755,19.6,26.5,169,973.07,12.0,56,9.45,0.0,999.36,90.0
2019-10-08 10:30,50.63044,-96.980775,18.1,22.2,172,973.08,12.0,56,9.45,0.0,999.37,90.0
2019-10-08 10:40,50.6304316666667,-96.98077,19.2,26.2,171,972.89,12.0,56,9.45,0.0,999.17,90.0
2019-10-08 10:50,50.6304266666667,-96.98077,18.3,24.9,169,972.79,11.8,57,9.45,0.0,999.07,90.0
2019-10-08 11:00,50.6304133333333,-96.98074,19.4,24.4,169,972.57,11.8,57,9.45,0.0,998.85,124.8
2019-10-08 11:10,50.630415,-96.980755,20.2,28.7,170,972.40,11.8,56,9.44,0.0,998.67,124.8
2019-10-08 11:20,50.63042,-96.9807616666667,19.5,26.7,169,972.39,11.8,57,9.45,0.0,998.66,124.8
2019-10-08 11:30,50.63042,-96.98076,19.1,26.6,171,972.31,11.8,57,9.45,0.0,998.59,124.8
2019-10-08 11:40,50.6304233333333,-96.9807616666667,17.7,24.4,174,972.43,11.6,58,9.45,0.0,998.71,124.8
2019-10-08 11:50,50.6304266666667,-96.98076,16.7,21.9,175,972.38,11.5,58,9.45,0.0,998.66,124.8
2019-10-08 12:00,50.6304266666667,-96.9807533333333,14.7,20.6,179,972.55,11.2,60,9.45,0.0,998.85,48.3
2019-10-08 12:10,50.6304283333333,-96.98076,15.4,20.8,175,972.39,10.9,61,9.45,0.0,998.70,48.3
2019-10-08 12:20,50.6304383333333,-96.9807666666667,16.4,20.3,173,972.25,10.9,61,9.45,0.0,998.55,48.3
2019-10-08 12:30,50.63044,-96.9807783333333,15.3,21.4,176,972.39,10.8,61,9.44,0.0,998.71,48.3
2019-10-08 12:40,50.63044,-96.9807533333333,13.2,20.6,178,972.56,10.5,63,9.43,0.0,998.90,48.3
2019-10-08 12:50,50.6304383333333,-96.9807533333333,14.0,19.0,174,972.56,10.2,64,9.43,0.0,998.91,48.3
2019-10-08 13:00,50.63044,-96.980755,12.9,16.5,171,972.48,10.1,65,9.44,0.0,998.84,360.0
2019-10-08 13:10,50.6304416666667,-96.980755,10.9,15.4,173,972.56,10.0,66,9.44,0.0,998.93,360.0
2019-10-08 13:20,50.630445,-96.98076,12.5,16.3,172,972.35,10.0,66,9.44,0.0,998.71,360.0
2019-10-08 13:30,50.630445,-96.9807683333333,12.9,16.5,175,972.26,9.9,66,9.43,0.0,998.63,360.0
2019-10-08 13:40,50.63044,-96.98077,14.1,18.9,177,972.21,10.0,66,9.42,0.0,998.58,360.0
2019-10-08 13:50,50.63044,-96.98077,16.2,21.7,176,972.11,10.0,66,9.41,0.0,998.49,360.0
2019-10-08 14:00,50.6304383333333,-96.98077,17.7,24.0,172,971.93,10.0,66,9.41,0.0,998.32,332.8
2019-10-08 14:10,50.6304016666667,-96.9807816666667,17.5,23.2,173,972.04,10.1,65,9.40,0.0,998.42,332.8
2019-10-08 14:20,50.6304333333333,-96.9807733333333,18.1,24.0,172,971.98,10.3,65,9.41,0.0,998.36,332.8
2019-10-08 14:30,50.6304316666667,-96.9807733333333,16.9,22.9,174,972.10,10.5,64,9.40,0.0,998.49,332.8
2019-10-08 14:40,50.6304316666667,-96.9807716666667,16.9,22.6,172,972.25,10.7,64,9.40,0.0,998.65,332.8
2019-10-08 14:50,50.6304233333333,-96.9807683333333,17.0,25.5,174,972.31,10.9,63,9.41,0.0,998.71,332.8
2019-10-08 15:00,50.6304216666667,-96.9807566666667,17.0,25.7,180,972.46,10.9,63,9.41,0.0,998.86,228.3
2019-10-08 15:10,50.6304266666667,-96.9807566666667,14.7,22.0,181,972.55,11.1,63,9.41,0.0,998.95,228.3
2019-10-08 15:20,50.630425,-96.9807466666667,14.0,19.3,178,972.48,11.2,63,9.44,0.0,998.87,228.3
2019-10-08 15:30,50.63042,-96.9807533333333,13.6,18.1,176,972.36,11.4,63,9.45,0.0,998.74,228.3
2019-10-08 15:40,50.6304166666667,-96.9807633333333,13.4,19.5,178,972.26,11.9,61,9.45,0.0,998.61,228.3
2019-10-08 15:50,50.6304116666667,-96.9807633333333,15.2,21.2,182,972.22,12.3,58,9.47,0.0,998.56,228.3
2019-10-08 16:00,50.6304133333333,-96.9807716666667,14.7,19.1,184,972.29,12.6,57,9.49,0.0,998.61,200.1
2019-10-08 16:10,50.6304066666667,-96.980775,12.1,15.8,183,972.45,12.9,57,9.52,0.0,998.75,200.1
2019-10-08 16:20,50.6304083333333,-96.9807716666667,13.4,19.4,186,972.39,13.2,56,9.54,0.0,998.67,200.1
2019-10-08 16:30,50.63041,-96.98077,14.9,20.9,182,972.34,13.4,55,9.57,0.0,998.59,200.1
2019-10-08 16:40,50.6304133333333,-96.9807716666667,13.0,21.4,183,972.39,13.7,55,9.60,0.0,998.62,200.1
2019-10-08 16:50,50.630415,-96.9807733333333,14.1,19.3,184,972.37,14.2,53,9.63,0.0,998.58,200.1
2019-10-08 17:00,50.6304183333333,-96.980775,15.6,21.4,183,972.34,14.5,52,9.65,0.0,998.53,360.0
2019-10-08 17:10,50.6304183333333,-96.9807733333333,15.9,19.8,177,972.31,14.6,52,9.68,0.0,998.48,360.0
2019-10-08 17:20,50.63042,-96.9807733333333,14.2,20.4,175,972.24,14.9,51,9.71,0.0,998.39,360.0
2019-10-08 17:30,50.63042,-96.9807716666667,12.9,16.9,184,972.32,15.3,51,9.73,0.0,998.43,360.0
2019-10-08 17:40,50.63042,-96.98077,14.0,19.2,185,972.47,15.6,50,9.77,0.0,998.55,360.0
2019-10-08 17:50,50.6304583333333,-96.9807483333333,13.9,20.6,189,972.67,16.1,49,9.82,0.0,998.72,360.0
2019-10-08 18:00,50.630445,-96.9807566666667,12.0,17.8,191,972.72,16.4,48,9.85,0.0,998.75,25.7
2019-10-08 18:10,50.6304416666667,-96.98076,13.8,18.0,179,972.53,16.5,49,9.88,0.0,998.53,25.7
2019-10-08 18:20,50.6304366666667,-96.9807583333333,13.6,18.1,171,972.46,16.5,50,9.91,0.0,998.44,25.7
2019-10-08 18:30,50.6304333333333,-96.9807583333333,14.8,20.1,170,972.32,16.8,50,9.94,0.0,998.28,25.7
2019-10-08 18:40,50.6304316666667,-96.9807583333333,16.7,19.7,173,972.30,17.1,48,9.96,0.0,998.22,25.7
2019-10-08 18:50,50.63043,-96.98076,14.7,19.5,175,972.36,17.2,49,9.99,0.0,998.26,25.7
2019-10-08 19:00,50.6304166666667,-96.9807833333333,14.6,18.9,177,972.37,17.5,48,10.01,0.0,998.26,270.0
2019-10-08 19:10,50.6304133333333,-96.9807683333333,14.3,19.5,178,972.40,17.6,49,10.02,0.0,998.27,270.0
2019-10-08 19:20,50.6303966666667,-96.9807416666667,14.0,19.7,178,972.47,17.7,48,10.04,0.0,998.31,270.0
2019-10-08 19:30,50.6304033333333,-96.9807566666667,14.8,20.0,181,972.50,17.8,48,10.07,0.0,998.33,270.0
2019-10-08 19:40,50.6304083333333,-96.980765,14.8,19.8,176,972.55,18.0,48,10.10,0.0,998.35,270.0
2019-10-08 19:50,50.6304116666667,-96.980765,14.9,20.2,179,972.62,18.1,48,10.13,0.0,998.40,270.0
2019-10-08 20:00,50.6304133333333,-96.9807633333333,14.4,19.2,180,972.75,18.2,48,10.16,0.0,998.53,90.0
2019-10-08 20:10,50.6304166666667,-96.9807633333333,14.7,19.3,184,972.86,18.5,47,10.19,0.0,998.62,90.0
2019-10-08 20:20,50.6304183333333,-96.9807666666667,12.6,17.8,187,972.96,18.8,48,10.22,0.0,998.70,90.0
2019-10-08 20:30,50.6304133333333,-96.98076,12.5,16.6,182,973.01,18.8,48,10.29,0.0,998.74,90.0
2019-10-08 20:40,50.63042,-96.980765,12.9,17.6,182,973.13,18.6,49,10.34,0.0,998.87,90.0
2019-10-08 20:50,50.6304183333333,-96.9807633333333,12.9,16.0,178,973.26,18.2,50,10.35,0.0,999.01,90.0
2019-10-08 21:00,50.63042,-96.9807633333333,14.3,17.9,177,973.23,18.3,50,10.38,0.0,998.98,207.6
2019-10-08 21:10,50.6304266666667,-96.9807533333333,13.8,18.5,176,973.32,18.1,51,10.41,0.0,999.06,207.6
2019-10-08 21:20,50.6304216666667,-96.980765,13.3,17.1,177,973.47,17.8,52,10.43,0.0,999.23,207.6
2019-10-08 21:30,50.6304166666667,-96.9807666666667,10.8,16.9,187,973.72,17.8,52,10.46,0.0,999.48,207.6
2019-10-08 21:40,50.6304166666667,-96.9807683333333,11.5,16.8,189,973.85,17.9,52,10.46,0.0,999.60,207.6
2019-10-08 21:50,50.630415,-96.98077,12.3,16.1,187,973.95,18.0,52,10.48,0.0,999.69,207.6
2019-10-08 22:00,50.630415,-96.98077,12.4,17.7,189,974.24,17.9,52,10.49,0.0,999.98,90.0
2019-10-08 22:10,50.630415,-96.9807683333333,12.3,17.2,194,974.54,17.8,53,10.51,0.0,1000.28,90.0
2019-10-08 22:20,50.6304316666667,-96.980775,11.4,15.8,193,974.71,17.7,54,10.55,0.0,1000.46,90.0
2019-10-08 22:30,50.6304333333333,-96.9807766666667,11.2,14.9,186,974.80,17.5,55,10.58,0.0,1000.58,90.0
2019-10-08 22:40,50.6304366666667,-96.98077,12.2,16.5,186,974.87,17.3,55,10.60,0.0,1000.66,90.0
2019-10-08 22:50,50.6304066666667,-96.9807766666667,10.1,13.9,187,975.00,17.3,56,10.60,0.0,1000.80,90.0
2019-10-08 23:00,50.630435,-96.98076,9.3,11.5,186,975.02,17.0,57,10.61,0.0,1000.84,27.6
2019-10-08 23:10,50.630435,-96.9807816666667,9.5,11.9,183,975.16,16.7,58,10.62,0.0,1001.02,27.6
2019-10-08 23:20,50.6304133333333,-96.9807616666667,7.7,11.0,190,975.32,16.8,58,10.63,0.0,1001.18,27.6
2019-10-08 23:30,50.6304166666667,-96.9807666666667,7.7,9.1,184,975.43,16.6,59,10.63,0.0,1001.29,27.6
2019-10-08 23:40,50.630415,-96.980765,7.0,8.9,189,975.68,16.6,59,10.64,0.0,1001.54,27.6
